Regional Weather Roundup
Issued by NWS

Home | Current Version | Previous Version | Text Only | Print | Product List | Glossary Off
Versions: 1 2 3 4 5 6 7 8 9 10 11 12 13 14 15 16 17 18 19 20 21 22 23 24 25 26 27 28 29 30 31 32 33 34 35 36 37 38 39 40 41 42 43 44 45 46 47 48 49 50

000
ASUS43 KLOT 251800
RWRIL

ILLINOIS REGIONAL WEATHER ROUNDUP
NATIONAL WEATHER SERVICE CHICAGO/ROMEOVILLE IL
1200 PM CST THU DEC 25 2014

NOTE: "FAIR" INDICATES FEW OR NO CLOUDS BELOW 12,000 FEET WITH NO
SIGNIFICANT WEATHER AND/OR OBSTRUCTIONS TO VISIBILITY.

* THESE STATIONS ARE NOT UNDER NWS QUALITY CONTROL. THEY ALSO MAY NOT
  REPORT WEATHER SUCH AS PRECIPITATION OR FOG.

ILZ001-002-007-009-015-016-024-251900-
NORTHWEST ILLINOIS

CITY           SKY/WX    TMP DP  RH WIND       PRES   REMARKS
MOLINE         MOSUNNY   44  32  62 S10       29.89F
6HR MIN TEMP:  33; 6HR MAX TEMP:  44;

STERLING*      MOSUNNY   43  34  70 SW6       29.93S
$$

ILZ003-004-008-010-011-017-018-251900-
NORTH CENTRAL ILLINOIS

CITY           SKY/WX    TMP DP  RH WIND       PRES   REMARKS
ROCKFORD       PTSUNNY   40  31  70 SW16      29.94S
6HR MIN TEMP:  33; 6HR MAX TEMP:  40;

FREEPORT*      MOSUNNY   38  32  78 S15       29.92S WCI  30
$$

ILZ005-006-012>014-019>023-251900-
NORTHEAST ILLINOIS

CITY           SKY/WX    TMP DP  RH WIND       PRES   REMARKS
CHICAGO-OHARE  PTSUNNY   38  29  70 SW13G21   29.94F WCI  30
6HR MIN TEMP:  33; 6HR MAX TEMP:  38;

CHICAGO-MIDWAY PTSUNNY   40  30  67 SW16G22   29.96F
6HR MIN TEMP:  35; 6HR MAX TEMP:  40;

AURORA         CLOUDY    40  30  67 S16       29.96S
6HR MIN TEMP:  34; 6HR MAX TEMP:  40;

WAUKEGAN       SUNNY     38  28  67 SW18G24   29.91S WCI  28
6HR MIN TEMP:  33; 6HR MAX TEMP:  38;

DUPAGE AIRPORT CLOUDY    39  30  70 SW16      29.95S WCI  30
6HR MIN TEMP:  33; 6HR MAX TEMP:  39;

WHEELING       PTSUNNY   38  28  67 S18G24    29.95F WCI  28
6HR MIN TEMP:  34; 6HR MAX TEMP:  38;

NORTHERLY ISL    N/A     37  28  70 SW9         N/A  WCI  30
$$

LMZ740>746-251900-
SOUTHERN LAKE MICHIGAN

STATION/POSITION SKY/WX   TEMP    WIND        PRES    VSBY  WAVE
                          AIR SEA DIR/SP/G                  HT/PER
                          (F)     (DEG/KT/KT) (MB)    (MI)  (FT/S)
WAUKEGAN HARBOR            37                   N/A
HARRISON CRIB              36     220/ 15/ 22   N/A
BURNHAM HARBOR             38     250/ 10/ 15   N/A
CALUMET HARBOR             37     200/ 13/ 19 1013.7F
MICHIGAN CITY              35     200/ 18/ 23   N/A
$$

ILZ025>027-034>036-040-047-049-050-058-095>099-251900-
WEST-CENTRAL ILLINOIS

CITY           SKY/WX    TMP DP  RH WIND       PRES   REMARKS
QUINCY         SUNNY     45  32  60 S14       29.91F
MACOMB*        SUNNY     44  35  71 S13G18    29.94F
$$

ILZ028>032-037-038-041>044-048-051>054-059>061-251900-
CENTRAL ILLINOIS

CITY           SKY/WX    TMP DP  RH WIND       PRES   REMARKS
DECATUR        SUNNY     43  35  73 S17G25    30.02F
PEORIA         SUNNY     45  33  63 S17       29.95F
6HR MIN TEMP:  36; 6HR MAX TEMP:  45;

LINCOLN*       SUNNY     44  35  69 S14G20    29.99F
SPRINGFIELD    SUNNY     46  35  65 S14       29.99F
6HR MIN TEMP:  34; 6HR MAX TEMP:  46;

TAYLORVILLE    NOT AVBL
$$

ILZ033-039-045-046-055>057-062-063-251900-
EAST-CENTRAL ILLINOIS

CITY           SKY/WX    TMP DP  RH WIND       PRES   REMARKS
CHAMPAIGN      PTSUNNY   41  34  76 S15       30.02F
DANVILLE*      CLOUDY    39  33  77 SW15G22   30.00F WCI  31
MATTOON        MOSUNNY   41  33  73 S15G24    30.04F
$$

ILZ079-100>102-251900-
SOUTHWEST ILLINOIS

CITY           SKY/WX    TMP DP  RH WIND       PRES   REMARKS
ALTON          SUNNY     46  34  61 S12       30.01F
BELLEVILLE     SUNNY     47  37  69 S13       30.03F
CAHOKIA*       SUNNY     48  36  63 S12G18    30.02F
SPARTA*        SUNNY     44  34  67 S15G21    30.07F
$$

ILZ064>066-069>071-074>076-080>082-084>086-088>090-092>094-251900-
SOUTH-CENTRAL ILLINOIS

CITY           SKY/WX    TMP DP  RH WIND       PRES   REMARKS
CARBONDALE     SUNNY     46  34  62 SW21      30.10F
6HR MIN TEMP:  31; 6HR MAX TEMP:  46;

MARION         MOSUNNY   46  36  66 S15G21    30.11F
MT. VERNON     SUNNY     46  36  66 S13       30.08F
SALEM*         SUNNY     46  36  67 S10G16    30.06F
$$

ILZ067-068-072-073-078-083-087-091-251900-
SOUTHEAST ILLINOIS

CITY           SKY/WX    TMP DP  RH WIND       PRES   REMARKS
LAWRENCEVILLE  PTSUNNY   45  34  65 S16       30.09F
ROBINSON*      CLOUDY    43  35  73 S10G16    30.09F
CARMI*         SUNNY     48  38  66 S15       30.10F
$$

ABBREVIATIONS USED IN REMARKS
   TC - TEMPERATURE IN CELSIUS
  WCI - WIND CHILL INDEX
   HX - HEAT INDEX
  VSB - VISIBILITY
$$




USA.gov is the U.S. government's official web portal to all federal, state and local government web resources and services.